Overview Statistics Trail Chart Weather Telemetry Raw packets
 

This is the latest recevied weather packets stored in our database for station/object HS2LXA-WX. If no packets are shown the sender has not sent any weather packets the latest 10 day(s).

<< 34 35 36 37 38 39 40 >>
Time Temp. Humidity Pressure Rain* Wind** Luminosity Snow
1788065302 32.22° C 90% 1010.7 hPa 0.25 mm - - -
1788064203 31.67° C 90% 1011 hPa 0.25 mm - - -
1788063291 31.67° C 89% 1011.1 hPa 0.25 mm - - -
1788062692 32.78° C 85% 1011.2 hPa 0 mm - - -
1788062009 32.78° C 84% 1011.1 hPa 0 mm - - -
1788061367 32.22° C 84% 1011.1 hPa 0 mm - - -
1788060767 32.22° C 86% 1011.1 hPa 0 mm - - -
1788058444 32.22° C 85% 1011.1 hPa 0 mm - - -
1788056718 31.67° C 89% 1011 hPa 0 mm - - -
1788055707 31.11° C 89% 1010.9 hPa 0 mm - - -
1788055107 31.11° C 89% 1011 hPa 0 mm - - -
1788054507 30.56° C 90% 1010.8 hPa 0 mm - - -
1788053800 30.56° C 92% 1010.7 hPa 0 mm - - -
1788053153 30° C 93% 1010.7 hPa 0 mm - - -
1788052553 30° C 93% 1010.7 hPa 0 mm - - -
1788051953 28.89° C 95% 1010.6 hPa 0 mm - - -
1788051353 29.44° C 94% 1010.4 hPa 0 mm - - -
1788050134 30.56° C 90% 1010.2 hPa 0 mm - - -
1788049047 30.56° C 90% 1009.8 hPa 0 mm - - -
1788047717 30.56° C 90% 1009.5 hPa 0 mm - - -
1788046518 30.56° C 90% 1009.5 hPa 0 mm - - -
1788045130 30° C 90% 1009.4 hPa 0 mm - - -
1788044530 30° C 90% 1009.4 hPa 0 mm - - -
1788043927 30° C 90% 1009.3 hPa 0 mm - - -
1788043341 30° C 90% 1009.2 hPa 0 mm - - -

* Rain latest hour (hover to see other rain measurements)
** Current wind speed in m/s (hover to see current wind gust speed)